Flag for U.S.A. Weather past 2 weeks in Winston-Salem, North Carolina, U.S.A.

Now
46 °F

Clear.


Feels Like: 42 °F
Forecast: 34 / 51 °F
Wind: 7 mph from Northwest

Location: Smith Reynolds Airport

Current Time: Dec 17, 2014 at 9:44:48 PM

Latest Report: Dec 17, 2014 at 8:54 PM


Visibility: 10 mi

Pressure: 30.09 "Hg

Humidity: 50%

Dew point: 28 °F

Location of Winston-SalemLocation

Historic Weather in Winston-Salem — Graph

°F

Winston-Salem temperature yesterday

Maximum temperature yesterday: 50 °F (at 3:54 PM)
Minimum temperature yesterday: 37 °F (at 12:54 AM)
Average temperature yesterday: 45 °F

Past Weeks' High & Low Weather Summary

 TemperatureHumidityPressure
High61 °F (Dec 13, 2:54 PM)97% (Dec 3, 1:54 AM)30.49 "Hg (Dec 3, 1:54 AM)
Low28 °F (Dec 11, 6:54 AM)16% (Dec 12, 3:54 PM)29.88 "Hg (Dec 16, 2:54 PM)
Average44 °F61%30.17 "Hg
* Reported Dec 2 7:54 PM — Dec 17 7:54 PM, Winston-Salem, Weather by CustomWeather, © 2014

Note: Actual official high and low records may vary slightly from our data, if they occured in-between our weather recording intervals... More about our weather records

Advertising

Winston-Salem weather history for previous 24 hours

 ConditionsComfort  
Time TempWeatherWind HumidityBarometerVisibility
7:54 PM
Dec 17
49 °FClear.8 mph44%30.09 "Hg10 mi
6:54 PM49 °FClear.3 mph50%30.08 "Hg10 mi
5:54 PM49 °FClear.3 mph57%30.08 "Hg10 mi
4:54 PM55 °FSunny.3 mph39%30.04 "Hg10 mi
3:54 PM56 °FSunny.6 mph37%30.04 "Hg10 mi
2:54 PM57 °FSunny.10 mph37%30.03 "Hg10 mi
1:54 PM56 °FSunny.6 mph39%30.05 "Hg10 mi
12:54 PM55 °FSunny.6 mph42%30.07 "Hg10 mi
11:54 AM53 °FSunny.8 mph47%30.10 "Hg10 mi
10:54 AM52 °FSunny.9 mph53%30.12 "Hg10 mi
9:54 AM50 °FSunny.9 mph57%30.11 "Hg10 mi
8:54 AM46 °FSunny.No wind68%30.11 "Hg10 mi
7:54 AM35 °FSunny.No wind92%30.11 "Hg10 mi
6:54 AM42 °FPassing clouds.No wind76%30.09 "Hg10 mi
5:54 AM38 °FPassing clouds.No wind86%30.08 "Hg10 mi
4:54 AM42 °FPassing clouds.3 mph73%30.07 "Hg10 mi
3:54 AM45 °FClear.6 mph68%30.06 "Hg10 mi
2:54 AM44 °FClear.5 mph71%30.04 "Hg10 mi
1:54 AM42 °FClear.3 mph76%30.02 "Hg10 mi
12:54 AM47 °FClear.5 mph64%30.03 "Hg10 mi
11:54 PM
Dec 16
47 °FClear.3 mph69%30.02 "Hg10 mi
10:54 PM48 °FPassing clouds.5 mph68%30.03 "Hg10 mi
9:54 PM49 °FOvercast.6 mph66%30.01 "Hg10 mi
Weather by CustomWeather, © 2014

See weather overviewHow to use our weather pages